| time (UTC) | temp F | wind direction | speed MPH | gust MPH | rain 1hr in | rain 24hr in | rain mn in | humidity % | barometer mb |
| 20260905004517 | 52 | 153 | 2.0 | 6.0 | 0.01 | 0.04 | 0.04 | 76 | 1017.3 |
| 20260905003035 | 54 | 163 | 2.0 | 5.0 | 0.01 | 0.03 | 0.03 | 72 | 1017.1 |
| 20260905001514 | 54 | 126 | 2.0 | 7.0 | 0.01 | 0.03 | 0.03 | 70 | 1016.4 |
| 20260905000014 | 54 | 138 | 4.0 | 10.0 | 0.01 | 0.03 | 0.03 | 71 | 1016.3 |
| 20260904234513 | 53 | 103 | 3.0 | 13.0 | 0.01 | 0.03 | 0.03 | 76 | 1016.4 |
| 20260904233032 | 56 | 124 | 3.0 | 7.0 | 0.00 | 0.02 | 0.02 | 70 | 1016.2 |
| 20260904231513 | 57 | 235 | 1.0 | 3.0 | 0.00 | 0.02 | 0.02 | 65 | 1016.0 |
| 20260904230031 | 58 | 274 | 0.0 | 4.0 | 0.00 | 0.02 | 0.02 | 61 | 1015.6 |
| 20260904224513 | 58 | 252 | 0.0 | 2.0 | 0.00 | 0.02 | 0.02 | 58 | 1015.3 |
| 20260904223011 | 58 | 70 | 0.0 | 3.0 | 0.00 | 0.02 | 0.02 | 58 | 1015.3 |
| 20260904221510 | 58 | 101 | 2.0 | 7.0 | 0.00 | 0.02 | 0.02 | 60 | 1015.2 |
| 20260904220013 | 58 | 101 | 2.0 | 8.0 | 0.00 | 0.02 | 0.02 | 61 | 1015.4 |
| 20260904214507 | 57 | 279 | 1.0 | 6.0 | 0.00 | 0.02 | 0.02 | 65 | 1015.5 |
| 20260904213003 | 56 | 256 | 1.0 | 7.0 | 0.01 | 0.02 | 0.02 | 70 | 1015.8 |
| 20260904211504 | 55 | 60 | 0.0 | 4.0 | 0.01 | 0.02 | 0.02 | 73 | 1015.9 |
| 20260904210001 | 53 | 96 | 1.0 | 3.0 | 0.02 | 0.02 | 0.02 | 75 | 1016.0 |
| 20260904204502 | 52 | 90 | 0.0 | 3.0 | 0.02 | 0.02 | 0.02 | 78 | 1016.1 |
| 20260904203100 | 51 | 140 | 0.0 | 3.0 | 0.01 | 0.01 | 0.01 | 81 | 1016.1 |
| 20260904201620 | 51 | 142 | 2.0 | 4.0 | 0.01 | 0.01 | 0.01 | 76 | 1016.4 |
| 20260904200104 | 52 | 105 | 1.0 | 10.0 | 0.00 | 0.00 | 0.00 | 72 | 1016.4 |
| 20260904194559 | 53 | 111 | 1.0 | 11.0 | 0.00 | 0.00 | 0.00 | 66 | 1016.4 |
| 20260904193101 | 55 | 161 | 3.0 | 7.0 | 0.00 | 0.00 | 0.00 | 60 | 1016.3 |
| 20260904191555 | 55 | 233 | 1.0 | 3.0 | 0.00 | 0.00 | 0.00 | 60 | 1016.2 |
| 20260904190054 | 55 | 11 | 0.0 | 3.0 | 0.00 | 0.00 | 0.00 | 57 | 1016.0 |
| 20260904184553 | 55 | 271 | 0.0 | 3.0 | 0.00 | 0.00 | 0.00 | 57 | 1016.0 |
| 20260904183059 | 55 | 323 | 0.0 | 3.0 | 0.00 | 0.00 | 0.00 | 56 | 1015.8 |
| 20260904181551 | 55 | 40 | 1.0 | 4.0 | 0.00 | 0.00 | 0.00 | 52 | 1015.8 |
| 20260904180059 | 55 | 326 | 1.0 | 5.0 | 0.00 | 0.00 | 0.00 | 53 | 1015.7 |
| 20260904174550 | 55 | 260 | 1.0 | 5.0 | 0.00 | 0.00 | 0.00 | 56 | 1015.6 |
| 20260904173111 | 56 | 108 | 1.0 | 5.0 | 0.00 | 0.00 | 0.00 | 58 | 1015.4 |
| 20260904171554 | 55 | 103 | 2.0 | 5.0 | 0.00 | 0.00 | 0.00 | 58 | 1015.5 |
| 20260904170051 | 54 | 147 | 2.0 | 5.0 | 0.00 | 0.00 | 0.00 | 60 | 1015.6 |
| 20260904164542 | 54 | 256 | 1.0 | 3.0 | 0.00 | 0.00 | 0.00 | 61 | 1015.4 |
| 20260904163044 | 54 | 334 | 0.0 | 3.0 | 0.00 | 0.00 | 0.00 | 65 | 1015.3 |
| 20260904161536 | 53 | 72 | 0.0 | 2.0 | 0.00 | 0.00 | 0.00 | 65 | 1015.2 |
| 20260904160036 | 51 | 319 | 1.0 | 3.0 | 0.00 | 0.00 | 0.00 | 70 | 1015.3 |
| 20260904154531 | 51 | 94 | 1.0 | 4.0 | 0.00 | 0.00 | 0.00 | 72 | 1015.3 |
| 20260904153036 | 50 | 80 | 1.0 | 3.0 | 0.00 | 0.00 | 0.00 | 75 | 1015.3 |
| 20260904151526 | 48 | 70 | 0.0 | 3.0 | 0.00 | 0.00 | 0.00 | 78 | 1015.2 |
| 20260904150036 | 47 | 131 | 1.0 | 5.0 | 0.00 | 0.00 | 0.00 | 81 | 1015.1 |
| 20260904144519 | 46 | 57 | 0.0 | 3.0 | 0.00 | 0.00 | 0.00 | 84 | 1015.0 |
| 20260904143029 | 44 | 70 | 1.0 | 3.0 | 0.00 | 0.00 | 0.00 | 85 | 1014.7 |
| 20260904141516 | 43 | 74 | 0.0 | 0.0 | 0.00 | 0.00 | 0.00 | 87 | 1014.6 |
| 20260904140014 | 41 | 74 | 0.0 | 0.0 | 0.00 | 0.00 | 0.00 | 90 | 1014.3 |
| 20260904134513 | 41 | 113 | 0.0 | 3.0 | 0.00 | 0.00 | 0.00 | 89 | 1014.2 |
| 20260904133022 | 41 | 261 | 0.0 | 2.0 | 0.00 | 0.00 | 0.00 | 90 | 1014.2 |
| 20260904131512 | 40 | 248 | 0.0 | 2.0 | 0.00 | 0.00 | 0.00 | 90 | 1014.0 |
| 20260904130008 | 40 | 83 | 0.0 | 2.0 | 0.00 | 0.00 | 0.00 | 90 | 1013.9 |
| 20260904124506 | 40 | 242 | 0.0 | 1.0 | 0.00 | 0.00 | 0.00 | 88 | 1013.9 |
| 20260904123004 | 41 | 276 | 0.0 | 2.0 | 0.00 | 0.00 | 0.00 | 88 | 1014.0 |
| 20260904121503 | 42 | 284 | 0.0 | 2.0 | 0.00 | 0.00 | 0.00 | 87 | 1013.7 |
| 20260904120006 | 43 | 211 | 0.0 | 2.0 | 0.00 | 0.00 | 0.00 | 86 | 1013.6 |
| 20260904114601 | 42 | 130 | 0.0 | 2.0 | 0.00 | 0.00 | 0.00 | 87 | 1013.5 |
| 20260904113102 | 43 | 81 | 0.0 | 2.0 | 0.00 | 0.00 | 0.00 | 87 | 1013.5 |
| 20260904111610 | 43 | 102 | 0.0 | 2.0 | 0.00 | 0.00 | 0.00 | 86 | 1013.3 |
| 20260904110059 | 43 | 96 | 1.0 | 3.0 | 0.00 | 0.00 | 0.00 | 87 | 1013.3 |
| 20260904104558 | 43 | 122 | 0.0 | 0.0 | 0.00 | 0.00 | 0.00 | 87 | 1013.4 |
| 20260904103056 | 43 | 134 | 0.0 | 2.0 | 0.00 | 0.00 | 0.00 | 86 | 1013.4 |
| 20260904101559 | 43 | 103 | 0.0 | 3.0 | 0.00 | 0.00 | 0.00 | 87 | 1013.3 |
| 20260904100054 | 43 | 114 | 1.0 | 3.0 | 0.00 | 0.00 | 0.00 | 88 | 1013.1 |
| 20260904094604 | 42 | 110 | 0.0 | 2.0 | 0.00 | 0.00 | 0.00 | 87 | 1013.2 |
| 20260904093057 | 42 | 108 | 0.0 | 2.0 | 0.00 | 0.00 | 0.00 | 88 | 1013.2 |
| 20260904091552 | 41 | 107 | 0.0 | 2.0 | 0.00 | 0.00 | 0.00 | 88 | 1013.1 |
| 20260904090049 | 41 | 118 | 0.0 | 2.0 | 0.00 | 0.00 | 0.00 | 87 | 1013.0 |
| 20260904084548 | 41 | 115 | 0.0 | 2.0 | 0.00 | 0.00 | 0.00 | 86 | 1013.0 |
| 20260904083045 | 41 | 92 | 1.0 | 3.0 | 0.00 | 0.00 | 0.00 | 86 | 1012.8 |
| 20260904081558 | 42 | 114 | 0.0 | 2.0 | 0.00 | 0.00 | 0.00 | 84 | 1012.6 |
| 20260904080040 | 43 | 92 | 1.0 | 2.0 | 0.00 | 0.00 | 0.00 | 83 | 1012.4 |
| 20260904074558 | 44 | 201 | 0.0 | 2.0 | 0.00 | 0.00 | 0.00 | 82 | 1012.3 |
| 20260904073030 | 46 | 196 | 0.0 | 1.0 | 0.00 | 0.00 | 0.00 | 78 | 1012.2 |
| 20260904071532 | 46 | 269 | 0.0 | 2.0 | 0.00 | 0.00 | 0.00 | 77 | 1012.0 |
| 20260904070025 | 47 | 165 | 0.0 | 2.0 | 0.00 | 0.00 | 0.00 | 76 | 1012.1 |
| 20260904064525 | 47 | 110 | 0.0 | 2.0 | 0.00 | 0.00 | 0.00 | 76 | 1011.9 |
| 20260904063025 | 49 | 323 | 0.0 | 2.0 | 0.00 | 0.00 | 0.00 | 70 | 1011.8 |
| 20260904061524 | 49 | 317 | 0.0 | 0.0 | 0.00 | 0.00 | 0.00 | 71 | 1011.9 |
| 20260904060023 | 49 | 317 | 0.0 | 2.0 | 0.00 | 0.03 | 0.00 | 69 | 1011.7 |
| 20260904054526 | 50 | 273 | 0.0 | 2.0 | 0.00 | 0.03 | 0.00 | 68 | 1011.8 |
| 20260904053033 | 50 | 273 | 0.0 | 3.0 | 0.00 | 0.03 | 0.00 | 67 | 1011.8 |
| 20260904051532 | 51 | 255 | 0.0 | 2.0 | 0.00 | 0.03 | 0.00 | 66 | 1011.8 |
| 20260904050032 | 51 | 269 | 0.0 | 3.0 | 0.00 | 0.07 | 0.00 | 64 | 1011.8 |
| 20260904044523 | 52 | 257 | 1.0 | 4.0 | 0.00 | 0.07 | 0.00 | 61 | 1011.7 |
| 20260904043021 | 53 | 319 | 1.0 | 6.0 | 0.00 | 0.07 | 0.00 | 60 | 1011.5 |
| 20260904041523 | 53 | 277 | 1.0 | 4.0 | 0.00 | 0.07 | 0.00 | 61 | 1011.4 |
| 20260904040020 | 54 | 329 | 2.0 | 6.0 | 0.00 | 0.08 | 0.00 | 56 | 1011.2 |
| 20260904034522 | 53 | 328 | 3.0 | 8.0 | 0.00 | 0.08 | 0.00 | 58 | 1011.1 |
| 20260904033018 | 53 | 166 | 0.0 | 0.0 | 0.00 | 0.08 | 0.00 | 65 | 1010.8 |
| 20260904031518 | 54 | 78 | 0.0 | 0.0 | 0.00 | 0.08 | 0.00 | 67 | 1010.6 |
| 20260904030018 | 54 | 87 | 0.0 | 0.0 | 0.00 | 0.10 | 0.00 | 61 | 1010.6 |
| 20260904024520 | 54 | 95 | 0.0 | 0.0 | 0.00 | 0.10 | 0.00 | 60 | 1010.5 |
| 20260904023025 | 55 | 114 | 0.0 | 0.0 | 0.00 | 0.10 | 0.00 | 58 | 1010.4 |
| 20260904021530 | 55 | 114 | 0.0 | 0.0 | 0.00 | 0.10 | 0.00 | 58 | 1010.3 |
| 20260904020017 | 57 | 113 | 0.0 | 0.0 | 0.00 | 0.12 | 0.00 | 56 | 1010.4 |
| 20260904014516 | 60 | 336 | 0.0 | 0.0 | 0.00 | 0.12 | 0.00 | 42 | 1010.4 |
| 20260904013015 | 60 | 336 | 0.0 | 0.0 | 0.00 | 0.12 | 0.00 | 43 | 1010.4 |
| 20260904011521 | 60 | 207 | 0.0 | 3.0 | 0.00 | 0.12 | 0.00 | 46 | 1010.5 |
| 20260904010013 | 60 | 217 | 0.0 | 5.0 | 0.00 | 0.14 | 0.00 | 43 | 1010.6 |